| time (UTC) | temp F | wind direction | speed MPH | gust MPH | rain 1hr in | rain 24hr in | rain mn in | humidity % | barometer mb |
| 20260506211001 | 91 | 257 | 8.0 | 12.0 | 0.00 | 0.00 | 0.00 | 43 | 1011.8 |
| 20260506210602 | 91 | 283 | 4.0 | 13.0 | 0.00 | 0.00 | 0.00 | 44 | 1011.9 |
| 20260506210059 | 91 | 254 | 6.0 | 13.0 | 0.00 | 0.00 | 0.00 | 43 | 1012.0 |
| 20260506205558 | 90 | 283 | 6.0 | 13.0 | 0.00 | 0.00 | 0.00 | 42 | 1012.0 |
| 20260506205058 | 91 | 240 | 6.0 | 14.0 | 0.00 | 0.00 | 0.00 | 41 | 1012.0 |
| 20260506204559 | 91 | 257 | 9.0 | 13.0 | 0.00 | 0.00 | 0.00 | 42 | 1012.0 |
| 20260506204057 | 91 | 280 | 8.0 | 14.0 | 0.00 | 0.00 | 0.00 | 42 | 1012.1 |
| 20260506203557 | 90 | 270 | 7.0 | 14.0 | 0.00 | 0.00 | 0.00 | 40 | 1012.1 |
| 20260506203529 | 90 | 250 | 8.0 | 14.0 | 0.00 | 0.00 | 0.00 | 40 | 1012.1 |
| 20260506203057 | 91 | 248 | 5.0 | 13.0 | 0.00 | 0.00 | 0.00 | 41 | 1012.2 |
| 20260506202556 | 91 | 259 | 3.0 | 11.0 | 0.00 | 0.00 | 0.00 | 43 | 1012.1 |
| 20260506202055 | 91 | 310 | 5.0 | 11.0 | 0.00 | 0.00 | 0.00 | 43 | 1012.2 |
| 20260506201557 | 91 | 284 | 5.0 | 14.0 | 0.00 | 0.00 | 0.00 | 40 | 1012.3 |
| 20260506201054 | 90 | 270 | 6.0 | 12.0 | 0.00 | 0.00 | 0.00 | 43 | 1012.3 |
| 20260506200556 | 91 | 248 | 7.0 | 17.0 | 0.00 | 0.00 | 0.00 | 44 | 1012.4 |
| 20260506200053 | 91 | 234 | 7.0 | 17.0 | 0.00 | 0.00 | 0.00 | 43 | 1012.3 |
| 20260506195552 | 90 | 257 | 3.0 | 12.0 | 0.00 | 0.00 | 0.00 | 42 | 1012.4 |
| 20260506195051 | 90 | 231 | 8.0 | 12.0 | 0.00 | 0.00 | 0.00 | 42 | 1012.6 |
| 20260506194551 | 91 | 252 | 9.0 | 14.0 | 0.00 | 0.00 | 0.00 | 41 | 1012.7 |
| 20260506194051 | 91 | 251 | 6.0 | 14.0 | 0.00 | 0.00 | 0.00 | 43 | 1012.7 |
| 20260506193553 | 90 | 276 | 3.0 | 14.0 | 0.00 | 0.00 | 0.00 | 45 | 1012.7 |
| 20260506193049 | 90 | 268 | 8.0 | 16.0 | 0.00 | 0.00 | 0.00 | 45 | 1012.7 |
| 20260506192548 | 90 | 259 | 5.0 | 16.0 | 0.00 | 0.00 | 0.00 | 45 | 1012.8 |
| 20260506192048 | 90 | 261 | 8.0 | 13.0 | 0.00 | 0.00 | 0.00 | 45 | 1013.0 |
| 20260506191548 | 89 | 313 | 2.0 | 10.0 | 0.00 | 0.00 | 0.00 | 47 | 1012.9 |
| 20260506191046 | 90 | 223 | 4.0 | 15.0 | 0.00 | 0.00 | 0.00 | 47 | 1013.1 |
| 20260506190546 | 91 | 271 | 8.0 | 15.0 | 0.00 | 0.00 | 0.00 | 45 | 1013.2 |
| 20260506190046 | 90 | 252 | 5.0 | 15.0 | 0.00 | 0.00 | 0.00 | 44 | 1013.3 |
| 20260506185543 | 90 | 261 | 8.0 | 15.0 | 0.00 | 0.00 | 0.00 | 45 | 1013.3 |
| 20260506185042 | 89 | 248 | 3.0 | 13.0 | 0.00 | 0.00 | 0.00 | 47 | 1013.4 |
| 20260506184548 | 90 | 273 | 6.0 | 15.0 | 0.00 | 0.00 | 0.00 | 46 | 1013.4 |
| 20260506184042 | 89 | 259 | 6.0 | 12.0 | 0.00 | 0.00 | 0.00 | 45 | 1013.4 |
| 20260506183543 | 89 | 268 | 6.0 | 11.0 | 0.00 | 0.00 | 0.00 | 46 | 1013.4 |
| 20260506183040 | 88 | 246 | 2.0 | 13.0 | 0.00 | 0.00 | 0.00 | 48 | 1013.5 |
| 20260506182540 | 89 | 261 | 5.0 | 13.0 | 0.00 | 0.00 | 0.00 | 47 | 1013.6 |
| 20260506182040 | 89 | 253 | 4.0 | 12.0 | 0.00 | 0.00 | 0.00 | 47 | 1013.7 |
| 20260506181539 | 89 | 273 | 6.0 | 13.0 | 0.00 | 0.00 | 0.00 | 47 | 1013.8 |
| 20260506181039 | 89 | 260 | 6.0 | 12.0 | 0.00 | 0.00 | 0.00 | 46 | 1013.9 |
| 20260506180539 | 88 | 250 | 3.0 | 14.0 | 0.00 | 0.00 | 0.00 | 49 | 1013.9 |
| 20260506180040 | 88 | 254 | 5.0 | 14.0 | 0.00 | 0.00 | 0.00 | 49 | 1014.0 |
| 20260506175539 | 89 | 256 | 4.0 | 10.0 | 0.00 | 0.00 | 0.00 | 49 | 1014.0 |
| 20260506175038 | 88 | 274 | 2.0 | 12.0 | 0.00 | 0.00 | 0.00 | 51 | 1014.0 |
| 20260506174538 | 88 | 257 | 7.0 | 12.0 | 0.00 | 0.00 | 0.00 | 51 | 1014.1 |
| 20260506174038 | 88 | 257 | 7.0 | 12.0 | 0.00 | 0.00 | 0.00 | 46 | 1014.3 |
| 20260506173538 | 89 | 288 | 0.0 | 11.0 | 0.00 | 0.00 | 0.00 | 51 | 1014.3 |
| 20260506173057 | 88 | 298 | 6.0 | 12.0 | 0.00 | 0.00 | 0.00 | 51 | 1014.3 |
| 20260506172535 | 88 | 232 | 6.0 | 10.0 | 0.00 | 0.00 | 0.00 | 50 | 1014.4 |
| 20260506172034 | 87 | 225 | 4.0 | 15.0 | 0.00 | 0.00 | 0.00 | 52 | 1014.5 |
| 20260506171535 | 87 | 302 | 3.0 | 12.0 | 0.00 | 0.00 | 0.00 | 51 | 1014.5 |
| 20260506171036 | 88 | 251 | 4.0 | 12.0 | 0.00 | 0.00 | 0.00 | 52 | 1014.6 |
| 20260506170532 | 87 | 272 | 2.0 | 14.0 | 0.00 | 0.00 | 0.00 | 53 | 1014.7 |
| 20260506170034 | 86 | 298 | 9.0 | 14.0 | 0.00 | 0.00 | 0.00 | 52 | 1014.8 |
| 20260506165531 | 86 | 147 | 2.0 | 10.0 | 0.00 | 0.00 | 0.00 | 54 | 1014.8 |
| 20260506165031 | 86 | 256 | 4.0 | 12.0 | 0.00 | 0.00 | 0.00 | 53 | 1014.9 |
| 20260506164533 | 87 | 256 | 7.0 | 12.0 | 0.00 | 0.00 | 0.00 | 53 | 1014.8 |
| 20260506164029 | 86 | 249 | 5.0 | 9.0 | 0.00 | 0.00 | 0.00 | 55 | 1014.9 |
| 20260506163532 | 86 | 238 | 5.0 | 12.0 | 0.00 | 0.00 | 0.00 | 55 | 1015.0 |
| 20260506163031 | 85 | 274 | 7.0 | 12.0 | 0.00 | 0.00 | 0.00 | 55 | 1015.0 |
| 20260506162527 | 85 | 288 | 6.0 | 12.0 | 0.00 | 0.00 | 0.00 | 55 | 1015.1 |
| 20260506162030 | 85 | 238 | 6.0 | 14.0 | 0.00 | 0.00 | 0.00 | 57 | 1015.1 |
| 20260506161527 | 85 | 271 | 7.0 | 14.0 | 0.00 | 0.00 | 0.00 | 56 | 1015.2 |
| 20260506161024 | 84 | 236 | 10.0 | 14.0 | 0.00 | 0.00 | 0.00 | 55 | 1015.3 |
| 20260506160523 | 84 | 247 | 7.0 | 15.0 | 0.00 | 0.00 | 0.00 | 56 | 1015.3 |
| 20260506160022 | 84 | 236 | 6.0 | 15.0 | 0.00 | 0.00 | 0.00 | 57 | 1015.3 |
| 20260506155521 | 84 | 245 | 4.0 | 11.0 | 0.00 | 0.00 | 0.00 | 56 | 1015.3 |
| 20260506155020 | 83 | 257 | 5.0 | 12.0 | 0.00 | 0.00 | 0.00 | 58 | 1015.3 |
| 20260506154520 | 83 | 240 | 8.0 | 12.0 | 0.00 | 0.00 | 0.00 | 59 | 1015.3 |
| 20260506154020 | 83 | 242 | 5.0 | 13.0 | 0.00 | 0.00 | 0.00 | 59 | 1015.3 |
| 20260506153520 | 82 | 240 | 4.0 | 14.0 | 0.00 | 0.00 | 0.00 | 59 | 1015.2 |
| 20260506153017 | 82 | 251 | 5.0 | 14.0 | 0.00 | 0.00 | 0.00 | 60 | 1015.3 |
| 20260506152517 | 82 | 240 | 5.0 | 10.0 | 0.00 | 0.00 | 0.00 | 58 | 1015.2 |
| 20260506152018 | 82 | 243 | 5.0 | 12.0 | 0.00 | 0.00 | 0.00 | 59 | 1015.3 |
| 20260506151516 | 82 | 259 | 5.0 | 12.0 | 0.00 | 0.00 | 0.00 | 59 | 1015.2 |
| 20260506151018 | 82 | 206 | 5.0 | 13.0 | 0.00 | 0.00 | 0.00 | 60 | 1015.1 |
| 20260506150514 | 81 | 241 | 6.0 | 13.0 | 0.00 | 0.00 | 0.00 | 60 | 1015.0 |
| 20260506150012 | 81 | 267 | 6.0 | 11.0 | 0.00 | 0.00 | 0.00 | 61 | 1015.0 |
| 20260506145511 | 80 | 244 | 3.0 | 14.0 | 0.00 | 0.00 | 0.00 | 63 | 1015.0 |
| 20260506145011 | 80 | 242 | 9.0 | 14.0 | 0.00 | 0.00 | 0.00 | 62 | 1015.1 |
| 20260506144510 | 80 | 230 | 4.0 | 12.0 | 0.00 | 0.00 | 0.00 | 63 | 1015.0 |
| 20260506144009 | 79 | 259 | 3.0 | 10.0 | 0.00 | 0.00 | 0.00 | 64 | 1015.0 |
| 20260506143509 | 78 | 212 | 6.0 | 10.0 | 0.00 | 0.00 | 0.00 | 64 | 1015.1 |
| 20260506143042 | 79 | 226 | 4.0 | 11.0 | 0.00 | 0.00 | 0.00 | 64 | 1015.1 |
| 20260506142511 | 79 | 228 | 3.0 | 14.0 | 0.00 | 0.00 | 0.00 | 65 | 1015.2 |
| 20260506142107 | 78 | 248 | 6.0 | 14.0 | 0.00 | 0.00 | 0.00 | 65 | 1015.2 |
| 20260506141505 | 77 | 264 | 5.0 | 10.0 | 0.00 | 0.00 | 0.00 | 65 | 1015.0 |
| 20260506141009 | 78 | 221 | 4.0 | 11.0 | 0.00 | 0.00 | 0.00 | 65 | 1015.0 |
| 20260506140504 | 77 | 258 | 6.0 | 14.0 | 0.00 | 0.00 | 0.00 | 67 | 1014.9 |
| 20260506140002 | 76 | 251 | 8.0 | 15.0 | 0.00 | 0.00 | 0.00 | 68 | 1015.0 |
| 20260506135600 | 76 | 251 | 9.0 | 15.0 | 0.00 | 0.00 | 0.00 | 68 | 1015.0 |
| 20260506135059 | 76 | 259 | 5.0 | 15.0 | 0.00 | 0.00 | 0.00 | 69 | 1014.9 |
| 20260506134558 | 75 | 232 | 7.0 | 16.0 | 0.00 | 0.00 | 0.00 | 70 | 1014.9 |
| 20260506134057 | 75 | 249 | 7.0 | 16.0 | 0.00 | 0.00 | 0.00 | 71 | 1014.8 |
| 20260506133556 | 75 | 251 | 8.0 | 15.0 | 0.00 | 0.00 | 0.00 | 71 | 1014.9 |
| 20260506133055 | 74 | 225 | 4.0 | 9.0 | 0.00 | 0.00 | 0.00 | 71 | 1014.8 |
| 20260506132553 | 74 | 262 | 3.0 | 13.0 | 0.00 | 0.00 | 0.00 | 72 | 1014.8 |
| 20260506132052 | 73 | 250 | 5.0 | 11.0 | 0.00 | 0.00 | 0.00 | 73 | 1015.0 |
| 20260506131600 | 73 | 227 | 6.0 | 11.0 | 0.00 | 0.00 | 0.00 | 72 | 1015.0 |
| 20260506131051 | 72 | 252 | 2.0 | 12.0 | 0.00 | 0.00 | 0.00 | 73 | 1015.1 |
| 20260506130550 | 71 | 268 | 6.0 | 12.0 | 0.00 | 0.00 | 0.00 | 74 | 1015.0 |
| 20260506130100 | 71 | 263 | 4.0 | 9.0 | 0.00 | 0.00 | 0.00 | 75 | 1015.0 |
| 20260506125545 | 70 | 234 | 2.0 | 9.0 | 0.00 | 0.00 | 0.00 | 77 | 1014.9 |
| 20260506125045 | 69 | 267 | 4.0 | 9.0 | 0.00 | 0.00 | 0.00 | 76 | 1014.9 |
| 20260506124552 | 69 | 243 | 3.0 | 5.0 | 0.00 | 0.00 | 0.00 | 77 | 1014.9 |
| 20260506124042 | 68 | 269 | 2.0 | 5.0 | 0.00 | 0.00 | 0.00 | 78 | 1014.8 |
| 20260506123541 | 68 | 244 | 1.0 | 4.0 | 0.00 | 0.00 | 0.00 | 78 | 1014.8 |
| 20260506123042 | 67 | 255 | 2.0 | 5.0 | 0.00 | 0.00 | 0.00 | 79 | 1014.8 |
| 20260506122542 | 66 | 232 | 2.0 | 5.0 | 0.00 | 0.00 | 0.00 | 80 | 1014.8 |
| 20260506122038 | 66 | 245 | 2.0 | 5.0 | 0.00 | 0.00 | 0.00 | 81 | 1014.7 |
| 20260506121535 | 65 | 244 | 1.0 | 4.0 | 0.00 | 0.00 | 0.00 | 82 | 1014.7 |
| 20260506121034 | 64 | 189 | 1.0 | 4.0 | 0.00 | 0.00 | 0.00 | 83 | 1014.6 |
| 20260506120534 | 64 | 283 | 0.0 | 2.0 | 0.00 | 0.00 | 0.00 | 83 | 1014.6 |
| 20260506120035 | 63 | 301 | 0.0 | 3.0 | 0.00 | 0.00 | 0.00 | 84 | 1014.5 |
| 20260506115530 | 63 | 253 | 1.0 | 3.0 | 0.00 | 0.00 | 0.00 | 84 | 1014.5 |
| 20260506115031 | 63 | 271 | 0.0 | 2.0 | 0.00 | 0.00 | 0.00 | 85 | 1014.3 |
| 20260506114534 | 62 | 272 | 0.0 | 3.0 | 0.00 | 0.00 | 0.00 | 86 | 1014.3 |
| 20260506114030 | 62 | 227 | 1.0 | 3.0 | 0.00 | 0.00 | 0.00 | 86 | 1014.3 |
| 20260506113530 | 61 | 63 | 0.0 | 2.0 | 0.00 | 0.00 | 0.00 | 86 | 1014.2 |
| 20260506113030 | 61 | 231 | 0.0 | 2.0 | 0.00 | 0.00 | 0.00 | 86 | 1014.1 |
| 20260506112529 | 61 | 248 | 0.0 | 2.0 | 0.00 | 0.00 | 0.00 | 86 | 1014.2 |
| 20260506112028 | 60 | 283 | 0.0 | 2.0 | 0.00 | 0.00 | 0.00 | 87 | 1014.2 |
| 20260506111528 | 60 | 213 | 0.0 | 2.0 | 0.00 | 0.00 | 0.00 | 87 | 1014.1 |
| 20260506111029 | 60 | 287 | 0.0 | 2.0 | 0.00 | 0.00 | 0.00 | 87 | 1014.2 |
| 20260506110530 | 60 | 287 | 0.0 | 3.0 | 0.00 | 0.00 | 0.00 | 87 | 1014.2 |
| 20260506110027 | 59 | 244 | 1.0 | 3.0 | 0.00 | 0.00 | 0.00 | 87 | 1014.2 |
| 20260506105524 | 59 | 285 | 1.0 | 3.0 | 0.00 | 0.00 | 0.00 | 87 | 1014.1 |
| 20260506105026 | 59 | 344 | 0.0 | 2.0 | 0.00 | 0.00 | 0.00 | 87 | 1013.9 |
| 20260506104522 | 59 | 284 | 1.0 | 2.0 | 0.00 | 0.00 | 0.00 | 87 | 1013.8 |
| 20260506104022 | 59 | 55 | 0.0 | 1.0 | 0.00 | 0.00 | 0.00 | 86 | 1013.6 |
| 20260506103522 | 59 | 55 | 0.0 | 1.0 | 0.00 | 0.00 | 0.00 | 86 | 1013.5 |
| 20260506103022 | 59 | 57 | 0.0 | 1.0 | 0.00 | 0.00 | 0.00 | 86 | 1013.6 |
| 20260506102522 | 59 | 248 | 0.0 | 1.0 | 0.00 | 0.00 | 0.00 | 86 | 1013.7 |
| 20260506102022 | 59 | 248 | 0.0 | 1.0 | 0.00 | 0.00 | 0.00 | 86 | 1013.7 |
| 20260506101538 | 59 | 248 | 0.0 | 1.0 | 0.00 | 0.00 | 0.00 | 86 | 1013.7 |
| 20260506101021 | 59 | 248 | 0.0 | 1.0 | 0.00 | 0.00 | 0.00 | 86 | 1013.7 |
| 20260506100521 | 59 | 248 | 0.0 | 1.0 | 0.00 | 0.00 | 0.00 | 86 | 1013.8 |
| 20260506100021 | 59 | 248 | 0.0 | 1.0 | 0.00 | 0.00 | 0.00 | 86 | 1013.7 |
| 20260506095520 | 59 | 248 | 0.0 | 2.0 | 0.00 | 0.00 | 0.00 | 86 | 1013.7 |
| 20260506095026 | 59 | 248 | 0.0 | 2.0 | 0.00 | 0.00 | 0.00 | 86 | 1013.8 |
| 20260506094524 | 58 | 243 | 0.0 | 1.0 | 0.00 | 0.00 | 0.00 | 86 | 1013.8 |
| 20260506094024 | 58 | 243 | 0.0 | 2.0 | 0.00 | 0.00 | 0.00 | 86 | 1013.8 |
| 20260506093519 | 58 | 243 | 0.0 | 2.0 | 0.00 | 0.00 | 0.00 | 86 | 1013.8 |
| 20260506093022 | 58 | 242 | 0.0 | 3.0 | 0.00 | 0.00 | 0.00 | 86 | 1013.7 |
| 20260506092519 | 58 | 243 | 0.0 | 3.0 | 0.00 | 0.00 | 0.00 | 86 | 1013.7 |
| 20260506092021 | 59 | 234 | 0.0 | 2.0 | 0.00 | 0.00 | 0.00 | 86 | 1013.9 |
| 20260506091519 | 59 | 234 | 0.0 | 2.0 | 0.00 | 0.00 | 0.00 | 85 | 1013.8 |
| 20260506091019 | 59 | 229 | 0.0 | 1.0 | 0.00 | 0.00 | 0.00 | 85 | 1013.7 |
| 20260506090517 | 59 | 229 | 0.0 | 0.0 | 0.00 | 0.00 | 0.00 | 86 | 1013.6 |
| 20260506090017 | 59 | 229 | 0.0 | 1.0 | 0.00 | 0.00 | 0.00 | 86 | 1013.7 |
| 20260506085517 | 59 | 229 | 0.0 | 1.0 | 0.00 | 0.00 | 0.00 | 86 | 1013.6 |
| 20260506085017 | 59 | 229 | 0.0 | 0.0 | 0.00 | 0.00 | 0.00 | 85 | 1013.6 |
| 20260506084517 | 59 | 229 | 0.0 | 0.0 | 0.00 | 0.00 | 0.00 | 86 | 1013.5 |
| 20260506084017 | 59 | 229 | 0.0 | 1.0 | 0.00 | 0.00 | 0.00 | 86 | 1013.5 |
| 20260506083517 | 59 | 229 | 0.0 | 1.0 | 0.00 | 0.00 | 0.00 | 85 | 1013.6 |
| 20260506083017 | 59 | 229 | 0.0 | 1.0 | 0.00 | 0.00 | 0.00 | 85 | 1013.5 |
| 20260506082519 | 59 | 229 | 0.0 | 1.0 | 0.00 | 0.00 | 0.00 | 85 | 1013.7 |
| 20260506082017 | 59 | 229 | 0.0 | 2.0 | 0.00 | 0.00 | 0.00 | 85 | 1013.9 |
| 20260506081515 | 59 | 229 | 0.0 | 2.0 | 0.00 | 0.00 | 0.00 | 85 | 1013.9 |
| 20260506081017 | 59 | 229 | 0.0 | 2.0 | 0.00 | 0.00 | 0.00 | 85 | 1013.7 |
| 20260506080516 | 59 | 229 | 0.0 | 1.0 | 0.00 | 0.00 | 0.00 | 85 | 1013.8 |
| 20260506073513 | 59 | 229 | 0.0 | 1.0 | 0.00 | 0.00 | 0.00 | 84 | 1013.6 |
| 20260506073027 | 60 | 230 | 0.0 | 2.0 | 0.00 | 0.00 | 0.00 | 84 | 1013.8 |
| 20260506072512 | 60 | 230 | 0.0 | 2.0 | 0.00 | 0.00 | 0.00 | 84 | 1013.5 |
| 20260506072012 | 60 | 179 | 0.0 | 1.0 | 0.00 | 0.00 | 0.00 | 84 | 1013.3 |
| 20260506071511 | 60 | 179 | 0.0 | 0.0 | 0.00 | 0.00 | 0.00 | 83 | 1013.4 |
| 20260506071017 | 60 | 179 | 0.0 | 0.0 | 0.00 | 0.00 | 0.00 | 83 | 1013.4 |
| 20260506070511 | 60 | 179 | 0.0 | 0.0 | 0.00 | 0.00 | 0.00 | 83 | 1013.3 |
| 20260506062505 | 60 | 179 | 0.0 | 0.0 | 0.00 | 0.00 | 0.00 | 82 | 1013.9 |
| 20260506062005 | 61 | 179 | 0.0 | 0.0 | 0.00 | 0.00 | 0.00 | 82 | 1014.0 |
| 20260506061504 | 61 | 179 | 0.0 | 0.0 | 0.00 | 0.00 | 0.00 | 82 | 1014.0 |
| 20260506061002 | 61 | 179 | 0.0 | 1.0 | 0.00 | 0.00 | 0.00 | 82 | 1014.0 |
| 20260506060502 | 61 | 179 | 0.0 | 1.0 | 0.00 | 0.00 | 0.00 | 82 | 1014.1 |
| 20260506051054 | 62 | 179 | 0.0 | 0.0 | 0.00 | 0.00 | 0.00 | 79 | 1014.6 |
| 20260506050554 | 62 | 179 | 0.0 | 0.0 | 0.00 | 0.00 | 0.00 | 79 | 1014.6 |
| 20260506045047 | 62 | 179 | 0.0 | 0.0 | 0.00 | 0.00 | 0.00 | 79 | 1014.6 |
| 20260506044645 | 62 | 179 | 0.0 | 0.0 | 0.00 | 0.00 | 0.00 | 79 | 1014.6 |
| 20260506044046 | 63 | 179 | 0.0 | 0.0 | 0.00 | 0.00 | 0.00 | 79 | 1014.6 |
| 20260506043546 | 63 | 179 | 0.0 | 0.0 | 0.00 | 0.00 | 0.00 | 78 | 1014.7 |
| 20260506043046 | 63 | 179 | 0.0 | 0.0 | 0.00 | 0.00 | 0.00 | 78 | 1014.7 |
| 20260506042545 | 63 | 179 | 0.0 | 0.0 | 0.00 | 0.00 | 0.00 | 77 | 1014.7 |
| 20260506042044 | 63 | 179 | 0.0 | 0.0 | 0.00 | 0.00 | 0.00 | 77 | 1014.7 |
| 20260506041556 | 63 | 179 | 0.0 | 0.0 | 0.00 | 0.00 | 0.00 | 77 | 1014.6 |
| 20260506041042 | 64 | 179 | 0.0 | 0.0 | 0.00 | 0.00 | 0.00 | 77 | 1014.7 |
| 20260506040545 | 64 | 179 | 0.0 | 0.0 | 0.00 | 0.00 | 0.00 | 77 | 1014.7 |
| 20260506040041 | 64 | 179 | 0.0 | 0.0 | 0.00 | 0.00 | 0.00 | 76 | 1014.7 |
| 20260506035540 | 64 | 179 | 0.0 | 0.0 | 0.00 | 0.00 | 0.00 | 76 | 1014.7 |
| 20260506035040 | 64 | 179 | 0.0 | 0.0 | 0.00 | 0.00 | 0.00 | 76 | 1014.7 |
| 20260506034614 | 65 | 179 | 0.0 | 1.0 | 0.00 | 0.00 | 0.00 | 76 | 1014.7 |
| 20260506034040 | 65 | 179 | 0.0 | 1.0 | 0.00 | 0.00 | 0.00 | 76 | 1014.7 |
| 20260506033539 | 65 | 176 | 0.0 | 1.0 | 0.00 | 0.00 | 0.00 | 75 | 1014.7 |
| 20260506033039 | 66 | 176 | 0.0 | 1.0 | 0.00 | 0.00 | 0.00 | 75 | 1014.8 |
| 20260506032539 | 66 | 177 | 0.0 | 1.0 | 0.00 | 0.00 | 0.00 | 74 | 1014.9 |
| 20260506032039 | 66 | 177 | 0.0 | 0.0 | 0.00 | 0.00 | 0.00 | 73 | 1014.8 |
| 20260506031542 | 66 | 177 | 0.0 | 0.0 | 0.00 | 0.00 | 0.00 | 73 | 1014.7 |
| 20260506031039 | 66 | 177 | 0.0 | 0.0 | 0.00 | 0.00 | 0.00 | 73 | 1014.8 |
| 20260506030538 | 67 | 177 | 0.0 | 0.0 | 0.00 | 0.00 | 0.00 | 74 | 1014.8 |
| 20260506030039 | 67 | 177 | 0.0 | 1.0 | 0.00 | 0.00 | 0.00 | 73 | 1014.7 |
| 20260506025538 | 67 | 177 | 0.0 | 1.0 | 0.00 | 0.00 | 0.00 | 73 | 1014.7 |
| 20260506025039 | 67 | 177 | 0.0 | 0.0 | 0.00 | 0.00 | 0.00 | 73 | 1014.8 |
| 20260506024537 | 67 | 177 | 0.0 | 0.0 | 0.00 | 0.00 | 0.00 | 73 | 1014.7 |
| 20260506024037 | 67 | 175 | 0.0 | 1.0 | 0.00 | 0.00 | 0.00 | 73 | 1014.5 |
| 20260506023537 | 68 | 175 | 0.0 | 2.0 | 0.00 | 0.00 | 0.00 | 72 | 1014.5 |
| 20260506023054 | 68 | 163 | 0.0 | 1.0 | 0.00 | 0.00 | 0.00 | 72 | 1014.5 |
| 20260506022536 | 68 | 167 | 0.0 | 2.0 | 0.00 | 0.00 | 0.00 | 72 | 1014.5 |
| 20260506022035 | 68 | 146 | 0.0 | 2.0 | 0.00 | 0.00 | 0.00 | 72 | 1014.4 |
| 20260506021536 | 68 | 120 | 0.0 | 2.0 | 0.00 | 0.00 | 0.00 | 72 | 1014.3 |
| 20260506021036 | 68 | 128 | 0.0 | 3.0 | 0.00 | 0.00 | 0.00 | 72 | 1014.3 |
| 20260506020537 | 68 | 148 | 0.0 | 4.0 | 0.00 | 0.00 | 0.00 | 72 | 1014.3 |
| 20260506020036 | 69 | 192 | 0.0 | 3.0 | 0.00 | 0.00 | 0.00 | 71 | 1014.3 |
| 20260506015535 | 69 | 135 | 0.0 | 3.0 | 0.00 | 0.00 | 0.00 | 71 | 1014.1 |
| 20260506015036 | 69 | 167 | 1.0 | 5.0 | 0.00 | 0.00 | 0.00 | 71 | 1014.0 |
| 20260506014535 | 69 | 128 | 0.0 | 5.0 | 0.00 | 0.00 | 0.00 | 71 | 1013.9 |
| 20260506014036 | 69 | 137 | 1.0 | 4.0 | 0.00 | 0.00 | 0.00 | 70 | 1013.9 |
| 20260506013534 | 69 | 140 | 1.0 | 7.0 | 0.00 | 0.00 | 0.00 | 70 | 1013.7 |
| 20260506013038 | 69 | 173 | 1.0 | 7.0 | 0.00 | 0.00 | 0.00 | 69 | 1013.7 |
| 20260506012534 | 70 | 146 | 0.0 | 3.0 | 0.00 | 0.00 | 0.00 | 69 | 1013.7 |
| 20260506012037 | 70 | 134 | 0.0 | 3.0 | 0.00 | 0.00 | 0.00 | 69 | 1013.7 |
| 20260506011533 | 70 | 153 | 0.0 | 3.0 | 0.00 | 0.00 | 0.00 | 68 | 1013.5 |
| 20260506011033 | 70 | 159 | 1.0 | 3.0 | 0.00 | 0.00 | 0.00 | 67 | 1013.5 |
| 20260506010532 | 70 | 148 | 1.0 | 3.0 | 0.00 | 0.00 | 0.00 | 67 | 1013.6 |
| 20260506010502 | 70 | 139 | 0.0 | 3.0 | 0.00 | 0.00 | 0.00 | 67 | 1013.6 |
| 20260506010035 | 71 | 148 | 1.0 | 5.0 | 0.00 | 0.00 | 0.00 | 66 | 1013.7 |
| 20260506005532 | 71 | 163 | 1.0 | 5.0 | 0.00 | 0.00 | 0.00 | 65 | 1013.6 |
| 20260506005032 | 71 | 142 | 0.0 | 2.0 | 0.00 | 0.00 | 0.00 | 65 | 1013.6 |
| 20260506004551 | 71 | 132 | 1.0 | 6.0 | 0.00 | 0.00 | 0.00 | 64 | 1013.6 |
| 20260506004031 | 72 | 126 | 1.0 | 6.0 | 0.00 | 0.00 | 0.00 | 64 | 1013.5 |
| 20260506003534 | 72 | 175 | 0.0 | 3.0 | 0.00 | 0.00 | 0.00 | 63 | 1013.4 |
| 20260506003041 | 72 | 172 | 1.0 | 5.0 | 0.00 | 0.00 | 0.00 | 62 | 1013.4 |
| 20260506002530 | 72 | 178 | 1.0 | 5.0 | 0.00 | 0.00 | 0.00 | 61 | 1013.3 |
| 20260506002030 | 73 | 155 | 0.0 | 3.0 | 0.00 | 0.00 | 0.00 | 60 | 1013.4 |
| 20260506001530 | 73 | 188 | 1.0 | 5.0 | 0.00 | 0.00 | 0.00 | 60 | 1013.4 |
| 20260506001030 | 73 | 137 | 0.0 | 3.0 | 0.00 | 0.00 | 0.00 | 59 | 1013.2 |
| 20260506000530 | 74 | 144 | 1.0 | 4.0 | 0.00 | 0.00 | 0.00 | 58 | 1013.2 |
| 20260506000031 | 74 | 153 | 0.0 | 7.0 | 0.00 | 0.00 | 0.00 | 58 | 1013.2 |
| 20260505235530 | 74 | 137 | 1.0 | 7.0 | 0.00 | 0.00 | 0.00 | 57 | 1013.1 |
| 20260505235030 | 74 | 186 | 2.0 | 5.0 | 0.00 | 0.00 | 0.00 | 57 | 1013.1 |
| 20260505234546 | 75 | 76 | 1.0 | 5.0 | 0.00 | 0.00 | 0.00 | 57 | 1013.2 |
| 20260505234031 | 75 | 185 | 2.0 | 8.0 | 0.00 | 0.00 | 0.00 | 56 | 1013.3 |
| 20260505233532 | 75 | 134 | 1.0 | 8.0 | 0.00 | 0.00 | 0.00 | 56 | 1013.2 |
| 20260505233028 | 75 | 155 | 1.0 | 5.0 | 0.00 | 0.00 | 0.00 | 56 | 1013.2 |
| 20260505232529 | 75 | 126 | 1.0 | 6.0 | 0.00 | 0.00 | 0.00 | 56 | 1013.1 |
| 20260505232032 | 76 | 157 | 2.0 | 5.0 | 0.00 | 0.00 | 0.00 | 56 | 1013.1 |
| 20260505231530 | 76 | 109 | 1.0 | 5.0 | 0.00 | 0.00 | 0.00 | 56 | 1013.1 |
| 20260505231028 | 76 | 170 | 1.0 | 8.0 | 0.00 | 0.00 | 0.00 | 55 | 1013.1 |
| 20260505230528 | 76 | 124 | 1.0 | 11.0 | 0.00 | 0.00 | 0.00 | 55 | 1013.1 |
| 20260505230038 | 76 | 136 | 3.0 | 9.0 | 0.00 | 0.00 | 0.00 | 55 | 1013.1 |
| 20260505225529 | 76 | 108 | 1.0 | 9.0 | 0.00 | 0.00 | 0.00 | 55 | 1012.9 |
| 20260505225028 | 76 | 225 | 1.0 | 5.0 | 0.00 | 0.00 | 0.00 | 55 | 1013.0 |
| 20260505224528 | 77 | 196 | 1.0 | 9.0 | 0.00 | 0.00 | 0.00 | 54 | 1013.0 |
| 20260505224027 | 77 | 156 | 2.0 | 9.0 | 0.00 | 0.00 | 0.00 | 53 | 1012.9 |
| 20260505223527 | 77 | 173 | 2.0 | 8.0 | 0.00 | 0.00 | 0.00 | 53 | 1012.8 |
| 20260505223027 | 77 | 96 | 2.0 | 6.0 | 0.00 | 0.00 | 0.00 | 53 | 1012.9 |
| 20260505222527 | 77 | 32 | 2.0 | 9.0 | 0.00 | 0.00 | 0.00 | 52 | 1012.7 |
| 20260505222027 | 78 | 94 | 2.0 | 7.0 | 0.00 | 0.00 | 0.00 | 52 | 1012.8 |
| 20260505221528 | 78 | 81 | 3.0 | 9.0 | 0.00 | 0.00 | 0.00 | 51 | 1012.7 |
| 20260505221025 | 78 | 152 | 2.0 | 10.0 | 0.00 | 0.00 | 0.00 | 50 | 1012.7 |
| 20260505220526 | 78 | 109 | 3.0 | 11.0 | 0.00 | 0.00 | 0.00 | 49 | 1012.7 |
| 20260505220038 | 79 | 109 | 3.0 | 10.0 | 0.00 | 0.00 | 0.00 | 49 | 1012.7 |
| 20260505215525 | 79 | 113 | 3.0 | 10.0 | 0.00 | 0.00 | 0.00 | 49 | 1012.7 |
| 20260505215025 | 79 | 132 | 4.0 | 9.0 | 0.00 | 0.00 | 0.00 | 48 | 1012.8 |
| 20260505214531 | 79 | 54 | 2.0 | 15.0 | 0.00 | 0.00 | 0.00 | 50 | 1012.8 |
| 20260505214023 | 79 | 36 | 2.0 | 15.0 | 0.00 | 0.00 | 0.00 | 49 | 1012.8 |
| 20260505213524 | 79 | 96 | 2.0 | 9.0 | 0.00 | 0.00 | 0.00 | 49 | 1012.9 |
| 20260505213026 | 80 | 84 | 2.0 | 11.0 | 0.00 | 0.00 | 0.00 | 50 | 1012.9 |
| 20260505212523 | 79 | 158 | 2.0 | 11.0 | 0.00 | 0.00 | 0.00 | 50 | 1012.9 |
| 20260505212024 | 79 | 166 | 4.0 | 10.0 | 0.00 | 0.00 | 0.00 | 49 | 1012.8 |
| 20260505211524 | 80 | 157 | 3.0 | 7.0 | 0.00 | 0.00 | 0.00 | 50 | 1012.8 |